Weather in Povarovo

Russia / Moscow Oblast     56°04′23″N   37°03′43″E
temp.,
°C
wind,
m/s
gust,
m/s
humid.,
%
clouds,
%
prec.,
mm/h
press.,
hPa
HPBL,
m
1 march, mon
mon100:00−5ene119775 0.1 102122
03:00−7sw009672 0.1 102321
06:00−7w229763 0.1 102330
09:00−5w249574 0.1 1024198
12:00−1wsw368866 0.0 1023352
15:000w5109378 0.0 1022694
18:00+1w51191100 0.0 1019543
21:00+1w51392100 0.0 1018658
2 march, tue
tue200:00+1w51391100 0.0 1014573
03:00+1wnw61292100 0.0 1013874
06:00+1wnw51292100 0.0 1010749
09:00+1wnw41091100 0.2 1010831
12:00+1nw588797 0.1 1009915
15:00+1nw5108899 0.3 10091062
18:00−1nw4128672 0.1 1009602
21:00−1nnw6118682 0.1 10111033
3 march, wed
wed300:00−2nw6129296 0.1 10131107
03:00−3nnw5118597 0.3 1015899
06:00−5nnw5138558 0.0 1016882
09:00−4nw5128634 0.1 1018852
12:00−1wnw598559 0.0 1017765
15:00−1wnw698380 0.1 1016827
18:00−1wnw51085100 0.0 1015866
21:00−1wnw51087100 0.1 1014858
4 march, thu
thu400:00−1w51189100 0.1 1011885
03:00−1wsw61492100 0.1 1007789
06:00−2wsw6158696 0.0 1004770
09:00−1w7138698 0.1 10011028
12:000w71291100 0.1 1000948
15:00+1w61295100 0.6 999833
18:00−2wnw3978100 2.1 1000956
21:00−4nw3108798 2.1 1003424
5 march, fri
fri500:00−6nw399311 0.0 1005312
03:00−8nw379540 0.0 1007247
06:00−9nw239626 0.0 100872
09:00−8nw129113 0.0 1009155
12:00−4wnw12720 0.0 1010583
15:00−3wnw12650 0.0 1011805
18:00−6nw118017 0.0 101121
21:00−8n11878 0.0 101221